Regional Weather Roundup
Issued by NWS

Home | Current Version | Previous Version | Text Only | Print | Product List | Glossary Off
Versions: 1 2 3 4 5 6 7 8 9 10 11 12 13 14 15 16 17 18 19 20 21 22 23 24 25 26 27 28 29 30 31 32 33 34 35 36 37 38 39 40 41 42 43 44 45 46 47 48 49 50

000
ASUS43 KFSD 190510
RWRSD

WEATHER ROUNDUP FOR SOUTH DAKOTA
NATIONAL WEATHER SERVICE SIOUX FALLS SD
1200 AM CDT SAT APR 19 2014

NOTE: "FAIR" INDICATES FEW OR NO CLOUDS BELOW 12,000 FEET WITH NO
SIGNIFICANT WEATHER AND/OR OBSTRUCTIONS TO VISIBILITY.


SDZ001>005-009-010-012>017-190600-
NORTHWEST AND NORTH CENTRAL SOUTH DAKOTA

CITY           SKY/WX    TMP DP  RH WIND       PRES   REMARKS
BUFFALO          N/A     47  40  76 NW40G52   29.74R
FAITH            N/A     50  41  71 NW18      29.69R
MOBRIDGE       CLOUDY    58  41  53 SE16      29.56R
$$

SDZ012>016-024>037-041>051-057-063-072>074-190600-
SOUTHWEST AND SOUTH CENTRAL SOUTH DAKOTA

CITY           SKY/WX    TMP DP  RH WIND       PRES   REMARKS
RAPID CTY ARPT MOCLDY    54  40  59 N23G32    29.73R
PIERRE         CLOUDY    67  43  41 S22G31    29.62R
CUSTER         CLOUDY    57  32  38 W10       29.82R
ELLSWORTH AFB  CLOUDY    54  40  59 N25       29.72R
PHILIP         MOCLDY    62  41  46 NW17      29.68R
PINE RIDGE     CLOUDY    63  34  33 SW12      29.77R
SPEARFISH      FAIR      48  39  71 NW8       29.84R
WINNER         FAIR      68  42  38 S31G45    29.72R
$$

SDZ004>011-016>023-039-040-190600-
NORTHEAST SOUTH DAKOTA

CITY           SKY/WX    TMP DP  RH WIND       PRES   REMARKS
ABERDEEN       PTCLDY    57  40  52 S30G43    29.71F
WATERTOWN      MOCLDY    52  37  56 SE21G31   29.84F
SISSETON         N/A     44  36  73 S23       29.85F
$$

SDZ017-020-022-023-036>040-048>070-190600-
SOUTHEAST SOUTH DAKOTA

CITY           SKY/WX    TMP DP  RH WIND       PRES   REMARKS
SIOUX FALLS    CLOUDY    56  38  50 S21G28    29.93F
HURON          MOCLDY    60  40  47 S21G33    29.75F
CHAMBERLAIN      N/A     66  42  41 S31G38    29.70F
MITCHELL         N/A     61  42  49 S26G35    29.81F
YANKTON        MOCLDY    57  39  51 S24G32    29.92F
$$

ABBREVIATIONS USED IN REMARKS
   TC - TEMPERATURE IN CELSIUS
  WCI - WIND CHILL INDEX
   HX - HEAT INDEX
  VSB - VISIBILITY




USA.gov is the U.S. government's official web portal to all federal, state and local government web resources and services.